{"data":{"norad_id":36397,"intl_designator":"2010-006A","name":"INTELSAT 16 (IS-16)","alt_names":[],"object_type":"PAYLOAD","status":"ACTIVE","operator":null,"country":"ITSO","launch_date":"2010-02-12","launch_site_code":"TYMSC","launch_vehicle":null,"mission":null,"orbit_class":"UNKNOWN","rcs_meters":266.9529,"size_class":null,"mass_kg":null,"dimensions":null,"purposes":["comms"],"wikipedia_slug":null,"has_3d_model":false,"image_url":null,"decayed_at":null,"tle_current":{"epoch":"2026-05-25T03:02:38.776416Z","epoch_age_seconds":63753,"freshness":"FRESH","line1":"1 36397U 10006A   26145.12683769 -.00000247  00000+0  00000+0 0  9997","line2":"2 36397   0.0145 298.4165 0002722 160.1693 113.5979  1.00270593 59426","mean_motion":1.00270593,"eccentricity":0.0002722,"inclination_deg":0.0145,"raan_deg":298.4165,"arg_perigee_deg":160.1693,"mean_anomaly_deg":113.5979,"bstar":0,"rev_number":5942,"period_min":1436.1139761086,"perigee_km":35775.451794373,"apogee_km":35798.406456371,"semimajor_km":42165.066125372,"source":"CELESTRAK","updated_at":"2026-05-25T13:38:14.329534Z"}}}